Flag for United Kingdom Weather past 2 weeks in Lichfield, England, United Kingdom

Now
45 °F

Passing clouds.


Feels Like: 41 °F
Forecast: 40 / 47 °F
Wind: 6 mph from Southwest

Location: Birmingham / Airport

Current Time: Jan 26, 2015 at 1:09:40 AM

Latest Report: Jan 26, 2015 at 12:20 AM


Visibility: N/A

Pressure: 30.18 "Hg

Humidity: 93%

Dew point: 43 °F

Location of LichfieldLocation

Historic Weather in Lichfield — Graph

°F

Lichfield temperature yesterday

Maximum temperature yesterday: 46 °F (at 12:20 PM)
Minimum temperature yesterday: 34 °F (at 12:50 AM)
Average temperature yesterday: 42 °F

Past Weeks' High & Low Weather Summary

 TemperatureHumidityPressure
High52 °F (Jan 15, 1:50 AM)100% (Jan 12, 9:50 PM)30.45 "Hg (Jan 12, 9:50 PM)
Low25 °F (Jan 20, 2:50 AM)61% (Jan 11, 10:50 AM)28.94 "Hg (Jan 15, 1:20 AM)
Average38 °F84%29.83 "Hg
* Reported Jan 10 11:20 PM — Jan 25 11:50 PM, Lichfield, Weather by CustomWeather, © 2014

Note: Actual official high and low records may vary slightly from our data, if they occured in-between our weather recording intervals... More about our weather records

Advertising

Lichfield weather history for previous 24 hours

 ConditionsComfort  
Time TempWeatherWind HumidityBarometerVisibility
11:50 PM
Jan 25
46 °FPassing clouds.7 mph87%30.18 "HgN/A
11:20 PM45 °FPassing clouds.7 mph93%30.21 "HgN/A
10:50 PM46 °FPassing clouds.8 mph87%30.21 "HgN/A
10:20 PM46 °FPassing clouds.9 mph87%30.21 "HgN/A
9:20 PM46 °FPartly cloudy.8 mph87%30.24 "HgN/A
8:50 PM46 °FPartly cloudy.8 mph87%30.24 "HgN/A
8:20 PM45 °FPartly cloudy.8 mph93%30.24 "HgN/A
7:50 PM45 °FPassing clouds.7 mph93%30.24 "HgN/A
7:20 PM45 °FPassing clouds.8 mph93%30.27 "HgN/A
6:50 PM45 °FPassing clouds.7 mph93%30.27 "Hg6 mi
6:20 PM45 °FPassing clouds.8 mph93%30.27 "HgN/A
5:50 PM45 °FPassing clouds.7 mph93%30.27 "Hg6 mi
5:20 PM45 °FPassing clouds.8 mph93%30.27 "Hg6 mi
4:50 PM46 °FPassing clouds.9 mph87%30.30 "HgN/A
4:20 PM46 °FBroken clouds.8 mph82%30.30 "HgN/A
3:50 PM46 °FPartly sunny.7 mph82%30.30 "HgN/A
3:20 PM46 °FBroken clouds.9 mph82%30.30 "HgN/A
2:50 PM46 °FBroken clouds.12 mph76%30.30 "HgN/A
2:20 PM46 °FScattered clouds.10 mph76%30.30 "HgN/A
1:50 PM46 °FScattered clouds.8 mph76%30.33 "HgN/A
1:20 PM46 °FScattered clouds.9 mph76%30.33 "HgN/A
12:50 PM46 °FPartly sunny.12 mph76%30.33 "HgN/A
12:20 PM46 °FScattered clouds.10 mph71%30.36 "HgN/A
11:50 AM45 °FPassing clouds.9 mph76%30.36 "HgN/A
11:20 AM45 °FPassing clouds.9 mph76%30.36 "HgN/A
10:50 AM43 °FPartly sunny.7 mph76%30.39 "HgN/A
10:20 AM41 °FPartly sunny.8 mph81%30.39 "HgN/A
9:50 AM41 °FPartly sunny.5 mph81%30.39 "HgN/A
9:20 AM39 °FPartly sunny.7 mph81%30.39 "HgN/A
8:50 AM39 °FPartly sunny.6 mph81%30.39 "HgN/A
8:20 AM37 °FPartly sunny.5 mph81%30.42 "HgN/A
7:50 AM37 °FPassing clouds.3 mph81%30.39 "HgN/A
7:20 AM37 °FPassing clouds.7 mph81%30.39 "HgN/A
6:50 AM37 °FPassing clouds.8 mph81%30.42 "HgN/A
6:20 AM37 °FPassing clouds.8 mph81%30.42 "HgN/A
5:50 AM36 °FPassing clouds.7 mph87%30.42 "HgN/A
5:20 AM34 °FPassing clouds.5 mph87%30.42 "HgN/A
4:50 AM36 °FPassing clouds.7 mph87%30.42 "HgN/A
4:20 AM36 °FClear.5 mph87%30.42 "Hg10 mi
3:20 AM36 °FClear.6 mph87%30.42 "Hg10 mi
2:50 AM36 °FChilly.6 mph87%30.42 "HgN/A
2:20 AM36 °FChilly.6 mph87%30.42 "HgN/A
1:50 AM36 °FChilly.7 mph87%30.42 "HgN/A
1:20 AM36 °FClear.5 mph87%30.42 "Hg10 mi
Weather by CustomWeather, © 2014

See weather overviewHow to use our weather pages